Weather History for Fond du Lac, WI

Change the Weather History Date:

Wednesday, March 20, 2013

  Actual Average Record
Temperature  
Mean Temperature 13 °F -  
Max Temperature 18 °F 40 °F 81 °F (2012)
Min Temperature 8 °F 26 °F -2 °F (1965)
Degree Days  
Heating Degree Days 52    
Moisture  
Dew Point 0 °F    
Average Humidity 54    
Maximum Humidity 59    
Minimum Humidity 50    
Precipitation  
Precipitation 0.00 in - - ()
Sea Level Pressure  
Sea Level Pressure 30.05 in    
Wind  
Wind Speed 12 mph (WNW)    
Max Wind Speed 20 mph    
Max Gust Speed 29 mph    
Visibility 10 miles    
Events      
Averages and records for this station are not official NWS values.
T = Trace of Precipitation, MM = Missing Value Source: NWS Daily Summary

Daily Weather History Graph

Daily Weather History Graph

Search for Another Location

Airport:

Trip Planner

Search our weather history database for the weather conditions in past years. The results will help you decide how hot, cold, wet, or windy it might be!

Date:

Astronomy

Mar. 20, 2013 Rise Set
Actual Time 6:56 AM CDT 7:06 PM CDT
Civil Twilight 6:28 AM CDT 7:35 PM CDT
Nautical Twilight 5:54 AM CDT 8:09 PM CDT
Astronomical Twilight 5:20 AM CDT 8:43 PM CDT
Moon 12:31 PM CDT (3/20) 2:46 AM CDT (3/20)
Length of Visible Light 13h 07m
Length of Day
12h 09m
First Quarter, 59% of the Moon is Illuminated
Mar 20
First Quarter
Mar 27
Full
Apr 2
Last Quarter
Apr 10
New
Apr 18
First Quarter

Hourly Weather History & Observations

Time (CDT) Temp. Windchill Dew Point Humidity Pressure Visibility Wind Dir Wind Speed Gust Speed Precip Events Conditions
12:53 AM 16.0 °F 3.6 °F 3.0 °F 57% 30.03 in 10.0 mi West 10.4 mph - N/A   Partly Cloudy
1:53 AM 15.1 °F 3.3 °F 1.9 °F 56% 30.03 in 10.0 mi West 9.2 mph - N/A   Clear
2:53 AM 14.0 °F -0.2 °F 1.0 °F 56% 30.03 in 10.0 mi West 12.7 mph - N/A   Clear
3:53 AM 12.0 °F -2.7 °F -0.9 °F 56% 30.03 in 10.0 mi West 12.7 mph - N/A   Clear
4:53 AM 10.9 °F -1.8 °F -2.9 °F 54% 30.04 in 10.0 mi West 9.2 mph - N/A   Clear
5:53 AM 9.0 °F -3.2 °F -4.0 °F 56% 30.05 in 10.0 mi West 8.1 mph - N/A   Clear
6:53 AM 8.1 °F -7.7 °F -5.1 °F 55% 30.06 in 10.0 mi West 12.7 mph - N/A   Clear
7:53 AM 8.1 °F -8.4 °F -5.1 °F 55% 30.06 in 10.0 mi West 13.8 mph 21.9 mph N/A   Clear
8:53 AM 8.1 °F -9.6 °F -5.1 °F 55% 30.07 in 10.0 mi WNW 16.1 mph - N/A   Clear
9:53 AM 9.0 °F -7.9 °F -2.9 °F 59% 30.06 in 10.0 mi WNW 15.0 mph 23.0 mph N/A   Clear
10:53 AM 10.9 °F -4.7 °F -2.0 °F 56% 30.06 in 10.0 mi WNW 13.8 mph 23.0 mph N/A   Clear
11:53 AM 14.0 °F -3.0 °F -0.9 °F 52% 30.05 in 10.0 mi WNW 18.4 mph - N/A   Clear
12:53 PM 16.0 °F -0.9 °F 1.0 °F 52% 30.04 in 10.0 mi WNW 19.6 mph 28.8 mph N/A   Clear
1:53 PM 17.1 °F 1.5 °F 1.9 °F 52% 30.03 in 10.0 mi West 17.3 mph 26.5 mph N/A   Clear
2:53 PM 18.0 °F 3.1 °F 1.9 °F 50% 30.02 in 10.0 mi WNW 16.1 mph - N/A   Clear
3:53 PM 17.1 °F 2.5 °F 1.0 °F 50% 30.03 in 10.0 mi NW 15.0 mph - N/A   Partly Cloudy
4:53 PM 18.0 °F 3.1 °F 1.9 °F 50% 30.03 in 10.0 mi WNW 16.1 mph - N/A   Clear
5:53 PM 18.0 °F 4.8 °F 1.9 °F 50% 30.05 in 10.0 mi WNW 12.7 mph - N/A   Clear
6:53 PM 16.0 °F 5.3 °F 1.0 °F 52% 30.06 in 10.0 mi WNW 8.1 mph - N/A   Clear
7:53 PM 14.0 °F 3.9 °F -0.0 °F 54% 30.07 in 10.0 mi West 6.9 mph - N/A   Clear
8:53 PM 14.0 °F 2.0 °F -0.0 °F 54% 30.07 in 10.0 mi WNW 9.2 mph - N/A   Scattered Clouds
9:53 PM 16.0 °F 1.7 °F 1.9 °F 54% 30.06 in 10.0 mi WNW 13.8 mph 21.9 mph N/A   Overcast
10:53 PM 14.0 °F -0.2 °F 1.9 °F 59% 30.06 in 10.0 mi NW 12.7 mph - N/A   Scattered Clouds
11:53 PM 12.9 °F -2.2 °F 1.0 °F 59% 30.06 in 10.0 mi NW 13.8 mph - N/A   Clear